Flag for Kazakhstan Weather past 2 weeks in Astana, Kazakhstan

Now
45 °F

Clear.


Feels Like: 38 °F
Forecast: 38 / 48 °F
Wind: 13 mph from West

Location: Astana

Current Time: Apr 27, 2015 at 12:18:35 AM

Latest Report: Apr 27, 2015 at 12:00 AM


Visibility: 10 mi

Pressure: 29.53 "Hg

Humidity: 76%

Dew point: 37 °F

Location of AstanaLocation

Historic Weather in Astana — Graph

°F

Astana temperature yesterday

Maximum temperature yesterday: 63 °F (at 2:00 PM)
Minimum temperature yesterday: 36 °F (at 5:30 AM)
Average temperature yesterday: 51 °F

Past Weeks' High & Low Weather Summary

 TemperatureHumidityPressure
High75 °F (Apr 21, 2:30 PM)100% (Apr 12, 7:30 AM)30.27 "Hg (Apr 12, 7:30 AM)
Low25 °F (Apr 14, 5:30 AM)23% (Apr 21, 3:30 PM)29.45 "Hg (Apr 26, 7:00 PM)
Average48 °F71%29.89 "Hg
* Reported Apr 11 11:00 PM — Apr 26 11:00 PM, Astana, Weather by CustomWeather, © 2015

Note: Actual official high and low records may vary slightly from our data, if they occured in-between our weather recording intervals... More about our weather records

Advertising

Astana weather history for previous 24 hours

 ConditionsComfort  
Time TempWeatherWind HumidityBarometerVisibility
11:00 PM
Sun, Apr 26
46 °FSprinkles. Mostly cloudy.10 mph87%29.53 "HgN/A
10:30 PM50 °FSprinkles. Partly cloudy.13 mph76%29.50 "HgN/A
10:00 PM52 °FPartly cloudy.20 mph67%29.50 "HgN/A
9:30 PM54 °FPassing clouds.10 mph67%29.45 "HgN/A
9:00 PM54 °FPartly sunny.8 mph51%29.45 "HgN/A
8:30 PM57 °FPartly sunny.13 mph44%29.45 "HgN/A
8:00 PM61 °FPartly sunny.13 mph39%29.45 "HgN/A
7:30 PM61 °FPartly sunny.15 mph39%29.45 "HgN/A
7:00 PM63 °FPartly sunny.15 mph34%29.45 "HgN/A
6:30 PM63 °FBroken clouds.13 mph34%29.47 "HgN/A
6:00 PM63 °FBroken clouds.17 mph34%29.47 "HgN/A
5:30 PM63 °FBroken clouds.17 mph37%29.47 "HgN/A
5:00 PM63 °FPassing clouds.15 mph37%29.47 "HgN/A
4:30 PM63 °FPassing clouds.15 mph37%29.47 "HgN/A
4:00 PM63 °FPassing clouds.13 mph37%29.50 "HgN/A
3:30 PM63 °FSunny.13 mph37%29.50 "Hg10 mi
3:00 PM61 °FPassing clouds.10 mph39%29.53 "HgN/A
2:30 PM63 °FPassing clouds.13 mph39%29.53 "HgN/A
2:00 PM63 °FPassing clouds.15 mph39%29.53 "HgN/A
1:30 PM61 °FPartly sunny.13 mph39%29.56 "HgN/A
1:00 PM61 °FBroken clouds.10 mph42%29.56 "HgN/A
12:30 PM59 °FBroken clouds.10 mph45%29.59 "HgN/A
12:00 PM57 °FBroken clouds.8 mph55%29.59 "HgN/A
11:30 AM57 °FBroken clouds.3 mph59%29.59 "HgN/A
11:00 AM54 °FBroken clouds.6 mph67%29.62 "HgN/A
10:30 AM54 °FBroken clouds.3 mph72%29.62 "HgN/A
10:00 AM48 °FPartly sunny.3 mph94%29.62 "HgN/A
9:30 AM45 °FFog.1 mph100%29.62 "Hg3 mi
9:00 AM43 °FFog.1 mph100%29.62 "Hg0 mi
8:30 AM43 °FFog.1 mph100%29.62 "Hg0 mi
8:00 AM39 °FFog.3 mph100%29.65 "Hg0 mi
7:30 AM37 °FFog.6 mph100%29.62 "Hg0 mi
7:00 AM36 °FPartly sunny.No wind100%29.62 "Hg5 mi
6:30 AM36 °FFog.3 mph100%29.62 "Hg0 mi
6:00 AM36 °FFog.3 mph100%29.62 "Hg1 mi
5:30 AM36 °FFog.1 mph93%29.65 "Hg0 mi
5:00 AM41 °FClear.1 mph93%29.65 "Hg10 mi
4:30 AM37 °FFog.3 mph93%29.65 "Hg3 mi
4:00 AM37 °FPassing clouds.3 mph93%29.65 "Hg4 mi
3:00 AM41 °FClear.6 mph93%29.68 "Hg10 mi
2:30 AM45 °FClear.8 mph93%29.68 "Hg10 mi
2:00 AM45 °FClear.8 mph87%29.68 "Hg10 mi
1:30 AM45 °FClear.6 mph81%29.68 "Hg10 mi
1:00 AM46 °FClear.8 mph82%29.68 "Hg10 mi
12:30 AM45 °FClear.8 mph81%29.68 "Hg10 mi
12:00 AM46 °FClear.10 mph76%29.68 "Hg10 mi
Weather by CustomWeather, © 2015

See weather overviewHow to use our weather pages